Location: Siratepeler Tepesi
(39.1042°N, 32.0781°E)
Time: 10:49:33
(UTC+00:00)

NOSS 3-2 (A) - Pass Details

Date: 11 April 2026
Orbit: 669 x 1534 km, 63.4° (Epoch: 2 January)

Event Time Altitude Azimuth Distance (km) Brightness Sun altitude
Rises 18:02:39 0° 324° (NW) 3,986 7.9 -18.6°
Reaches altitude 10° 18:05:11 10° 322° (NW) 3,135 7.1 -19.0°
Maximum altitude 18:12:53 71° 241° (WSW) 1,437 4.4 -20.3°
Enters shadow 18:19:22 21° 162° (SSE) 2,831 5.5 -21.4°
